[[{"header":{"parameterUnit":"m.s-1","parameterCategory":1,"la1":30.2991,"la2":30.254,"lo1":-89.0895,"lo2":-89.0444,"dy":0.0017,"dx":0.0017,"nx":28,"ny":28,"refTime":"2024-10-09T09:00:00:Z","depth":0,"parameterNumber":2,"parameterNumberName":"U-component_of_WINDS"},"data":[0,0,0,0,0,0,0,0,0,0,0,0,0,0,0,0,0,0,0,0,0,0,0,0,0,0,0,0,0,0,0,0,0,0,0,0,0,0,0,0,0,0,0,0,0,0,0,0,0,0,0,0,0,0,0,0,0,0,-1.3494,-1.3495,0,-1.3578,-1.3579,-1.358,-1.3586,-1.3585,-1.3584,-1.3583,-1.3671,-1.3674,-1.3677,0,0,0,0,0,0,0,0,0,0,0,0,0,-1.3339,-1.3342,-1.3494,-1.3495,-1.3496,-1.3578,-1.3579,-1.358,-1.3586,-1.3585,-1.3584,-1.3583,-1.367,-1.3674,-1.3678,0,0,0,0,0,0,0,0,0,0,0,0,0,-1.3413,-1.3343,-1.3494,-1.3509,-1.3511,-1.3578,-1.3579,-1.358,-1.3586,-1.3585,-1.3583,-1.3582,-1.3669,-1.3673,-1.3678,-1.3736,0,0,-1.3693,-1.3695,0,0,0,0,0,0,0,0,-1.3409,-1.3419,-1.3505,-1.3508,-1.351,-1.357,-1.3557,-1.3633,-1.3587,-1.3558,-1.3583,-1.3581,-1.3639,-1.3646,-1.3665,-1.3741,-1.3744,-1.3693,-1.3696,-1.3698,-1.37,0,0,0,0,0,0,0,-1.3404,-1.3415,-1.3527,-1.3507,-1.351,-1.3512,-1.352,-1.3571,-1.3605,-1.356,-1.3561,-1.357,-1.364,-1.366,-1.3667,-1.3746,-1.3693,-1.3698,-1.3701,-1.3702,-1.3874,-1.3876,0,0,0,0,0,0,-1.3396,-1.3411,-1.3524,-1.353,-1.3455,-1.3515,-1.3525,-1.3552,-1.3605,-1.3611,-1.3572,-1.357,-1.3653,-1.3661,-1.367,-1.3743,-1.3698,-1.3703,-1.3706,-1.3872,-1.3874,-1.3876,0,0,0,0,0,0,-1.3392,-1.3406,-1.3521,-1.3471,-1.3485,-1.352,-1.355,-1.3555,-1.3575,-1.3613,-1.3619,-1.3586,-1.3652,-1.3663,-1.372,-1.3746,-1.3705,-1.371,-1.387,-1.3873,-1.3875,-1.3888,0,0,0,0,0,0,-1.3388,-1.3405,-1.3427,-1.3471,-1.3488,-1.3569,-1.3551,-1.3557,-1.3583,-1.3582,-1.3629,-1.3635,-1.3652,-1.3713,-1.3725,-1.3752,-1.3713,-1.3868,-1.3872,-1.3875,-1.3885,-1.389,-1.3895,0,0,0,0,0,-1.3382,-1.3427,-1.3428,-1.3442,-1.3516,-1.3571,-1.358,-1.3598,-1.3585,-1.3608,-1.3633,-1.3633,-1.374,-1.3718,-1.3732,-1.3761,-1.3867,-1.3871,-1.3874,-1.3883,-1.3889,-1.3895,0,0,0,0,0,0,-1.3386,-1.3433,-1.3435,-1.3495,-1.3529,-1.3571,-1.3601,-1.3604,-1.3643,-1.3641,-1.3661,-1.3672,-1.3728,-1.375,-1.3724,-1.382,-1.3802,-1.3809,-1.3804,-1.3811,-1.3815,-1.381,-1.3717,0,0,0,0,0,-1.3393,-1.3433,-1.3472,-1.3522,-1.3539,-1.3567,-1.3591,-1.3602,-1.3638,-1.3652,-1.3681,-1.3716,-1.3758,-1.3785,-1.3826,-1.3888,-1.3898,-1.3914,-1.3919,-1.3923,-1.3929,-1.3964,-1.3972,-1.3888,-1.3888,-1.3888,0,0,-1.341,-1.3441,-1.3465,-1.3523,-1.3551,-1.3592,-1.3579,-1.3623,-1.3654,-1.3659,-1.3715,-1.3737,-1.3778,-1.3837,-1.3865,-1.3857,-1.3954,-1.3927,-1.393,-1.3934,-1.3969,-1.3977,-1.3984,-1.3891,-1.3891,-1.389,0,0,-1.3462,-1.3488,-1.3533,-1.356,-1.3602,-1.362,-1.3631,-1.3673,-1.3688,-1.3743,-1.3748,-1.3785,-1.3857,-1.3886,-1.391,-1.3972,-1.3974,-1.3984,-1.401,-1.4044,-1.4051,-1.4057,-1.408,-1.4088,-1.399,-1.399,-1.399,0,-1.3478,-1.3539,-1.3556,-1.36,-1.3626,-1.3631,-1.3677,-1.3703,-1.3755,-1.3774,-1.3764,-1.3853,-1.3881,-1.3948,-1.3963,-1.3982,-1.3996,-1.398,-1.4048,-1.4054,-1.406,-1.4083,-1.4092,-1.3991,-1.399,-1.399,-1.399,0,-1.3557,-1.36,-1.3631,-1.3681,-1.371,-1.3755,-1.3779,-1.3806,-1.3814,-1.3833,-1.389,-1.3924,-1.3971,-1.3987,-1.3996,-1.4056,-1.405,-1.4044,-1.4027,-1.4069,-1.4091,-1.4099,-1.3992,-1.3992,-1.3991,-1.3991,0,0,-1.3616,-1.3673,-1.3685,-1.3708,-1.3753,-1.3787,-1.3832,-1.3877,-1.3901,-1.3937,-1.3976,-1.4035,-1.403,-1.4057,-1.4069,-1.4098,-1.4147,-1.4089,-1.409,-1.41,-1.4217,-1.4223,-1.4233,-1.4148,-1.4149,-1.4151,-1.4214,0,-1.3674,-1.3753,-1.3769,-1.3839,-1.3879,-1.3884,-1.3923,-1.3956,-1.3975,-1.4012,-1.4033,-1.4075,-1.4064,-1.4081,-1.411,-1.4134,-1.4171,-1.413,-1.4186,-1.4187,-1.4177,-1.4244,-1.425,-1.4309,-1.4222,-1.4224,-1.4225,0,-1.3753,-1.379,-1.3863,-1.3904,-1.3921,-1.3956,-1.4,-1.4034,-1.4071,-1.4083,-1.4113,-1.4121,-1.4168,-1.4147,-1.4213,-1.4185,-1.4209,-1.4224,-1.4226,-1.4234,-1.421,-1.4255,-1.4327,-1.4337,-1.4238,-1.4237,-1.4236,0,-1.379,-1.3858,-1.3911,-1.393,-1.3978,-1.4003,-1.4024,-1.4059,-1.4086,-1.4124,-1.4142,-1.4184,-1.4208,-1.4241,-1.4261,-1.4243,-1.4326,-1.4306,-1.4339,-1.4338,-1.4358,-1.4357,-1.4437,-1.4369,-1.4369,-1.4369,-1.4369,0,-1.3854,-1.39,-1.3929,-1.3962,-1.4013,-1.403,-1.408,-1.4101,-1.4132,-1.4169,-1.4176,-1.4211,-1.4233,-1.4272,-1.4287,-1.434,-1.435,-1.4362,-1.4366,-1.4363,-1.4362,-1.438,-1.4377,-1.4371,-1.4371,-1.437,-1.437,0,-1.3906,-1.3927,-1.3985,-1.4025,-1.4036,-1.4072,-1.4107,-1.4139,-1.4157,-1.4205,-1.4217,-1.4246,-1.4292,-1.4314,-1.437,-1.438,-1.4441,-1.4442,-1.4429,-1.4431,-1.4463,-1.446,-1.456,-1.4574,-1.4495,-1.4495,-1.4496,0,-1.3947,-1.3982,-1.4025,-1.405,-1.4072,-1.4113,-1.414,-1.4157,-1.4185,-1.423,-1.4257,-1.4302,-1.434,-1.4413,-1.444,-1.4483,-1.4486,-1.4517,-1.4492,-1.4488,-1.4488,-1.4487,-1.4491,-1.4523,-1.4523,-1.4524,-1.4524,0,-1.4018,-1.4026,-1.4065,-1.4107,-1.4139,-1.4173,-1.4206,-1.4227,-1.425,-1.4281,-1.4327,-1.4356,-1.4414,-1.446,-1.4505,-1.4527,-1.453,-1.4531,-1.4542,-1.454,-1.4532,-1.4539,-1.4444,-1.453,-1.4529,-1.4529,-1.4529,-1.4528,-1.4067,-1.4098,-1.4134,-1.4177,-1.4203,-1.4234,-1.4267,-1.4289,-1.4328,-1.4376,-1.4383,-1.4433,-1.4469,-1.453,-1.4553,-1.4593,-1.4586,-1.46,-1.4604,-1.4608,-1.4611,-1.4524,-1.4601,-1.4601,-1.4601,-1.4601,-1.4601,0,-1.414,-1.4163,-1.4201,-1.4248,-1.4282,-1.428,-1.4317,-1.4346,-1.4389,-1.4422,-1.4458,-1.4512,-1.4556,-1.4585,-1.463,-1.4656,-1.4659,-1.4668,-1.4667,-1.4673,-1.4614,-1.4601,-1.4665,-1.4665,-1.4665,-1.4665,-1.4665,-1.4665,-1.4182,-1.4236,-1.4248,-1.4315,-1.4338,-1.4386,-1.4408,-1.4437,-1.4463,-1.4522,-1.4559,-1.4577,-1.4609,-1.4656,-1.4696,-1.4704,-1.4721,-1.473,-1.4738,-1.4683,-1.4677,-1.467,-1.4659,-1.4733,-1.4734,-1.4794,-1.4795,-1.4795]},{"header":{"parameterUnit":"m.s-1","parameterCategory":1,"la1":30.2991,"la2":30.254,"lo1":-89.0895,"lo2":-89.0444,"dy":0.0017,"dx":0.0017,"nx":28,"ny":28,"refTime":"2024-10-09T09:00:00:Z","depth":0,"parameterNumber":3,"parameterNumberName":"V-component_of_WINDS"},"data":[0,0,0,0,0,0,0,0,0,0,0,0,0,0,0,0,0,0,0,0,0,0,0,0,0,0,0,0,0,0,0,0,0,0,0,0,0,0,0,0,0,0,0,0,0,0,0,0,0,0,0,0,0,0,0,0,0,0,-5.0978,-5.0979,0,-5.1025,-5.1026,-5.1026,-5.096,-5.0958,-5.0955,-5.0953,-5.0997,-5.1,-5.1003,0,0,0,0,0,0,0,0,0,0,0,0,0,-5.0827,-5.083,-5.0978,-5.0979,-5.098,-5.1025,-5.1026,-5.1027,-5.0961,-5.0958,-5.0955,-5.0952,-5.0996,-5.1,-5.1004,0,0,0,0,0,0,0,0,0,0,0,0,0,-5.0885,-5.0831,-5.0978,-5.0952,-5.095,-5.1025,-5.1026,-5.1027,-5.0961,-5.0958,-5.0954,-5.0951,-5.0994,-5.0999,-5.1004,-5.1105,0,0,-5.1019,-5.1022,0,0,0,0,0,0,0,0,-5.0882,-5.0891,-5.0955,-5.0954,-5.0952,-5.0983,-5.0988,-5.1053,-5.0962,-5.0957,-5.0953,-5.0949,-5.0995,-5.1,-5.1016,-5.1107,-5.1109,-5.102,-5.1023,-5.1025,-5.1027,0,0,0,0,0,0,0,-5.0878,-5.0888,-5.0997,-5.0956,-5.0954,-5.0937,-5.0941,-5.1,-5.0995,-5.0957,-5.0952,-5.0959,-5.0993,-5.1011,-5.1016,-5.111,-5.102,-5.1024,-5.1027,-5.1029,-5.1287,-5.1291,0,0,0,0,0,0,-5.0878,-5.0885,-5.0995,-5.0998,-5.0908,-5.0942,-5.0947,-5.0977,-5.0994,-5.0993,-5.0962,-5.0956,-5.1004,-5.1011,-5.1018,-5.1138,-5.1025,-5.103,-5.1033,-5.1284,-5.1288,-5.1293,0,0,0,0,0,0,-5.0875,-5.0888,-5.0993,-5.0941,-5.0953,-5.0949,-5.0982,-5.098,-5.0998,-5.0998,-5.0996,-5.0982,-5.1002,-5.1011,-5.1085,-5.1139,-5.1032,-5.1037,-5.1279,-5.1285,-5.129,-5.138,0,0,0,0,0,0,-5.0871,-5.0887,-5.0927,-5.0942,-5.0956,-5.1061,-5.0986,-5.0983,-5.1007,-5.0999,-5.1016,-5.1015,-5.1,-5.1078,-5.109,-5.1144,-5.104,-5.1274,-5.1282,-5.1289,-5.1372,-5.1388,-5.1402,0,0,0,0,0,-5.0865,-5.0949,-5.0929,-5.0943,-5.1005,-5.1064,-5.1072,-5.1054,-5.1012,-5.1051,-5.1051,-5.1015,-5.1131,-5.1086,-5.1099,-5.1155,-5.1271,-5.128,-5.1288,-5.1366,-5.1385,-5.1401,0,0,0,0,0,0,-5.0938,-5.095,-5.0929,-5.102,-5.1042,-5.1053,-5.1101,-5.1075,-5.1108,-5.1099,-5.1074,-5.1078,-5.1158,-5.1163,-5.1113,-5.1255,-5.1194,-5.1205,-5.1248,-5.1267,-5.1281,-5.1278,-5.1045,0,0,0,0,0,-5.0965,-5.1013,-5.1021,-5.11,-5.1113,-5.1106,-5.113,-5.1115,-5.1136,-5.1144,-5.115,-5.117,-5.1212,-5.1239,-5.1277,-5.1372,-5.1375,-5.1418,-5.1433,-5.1445,-5.1455,-5.1507,-5.1527,-5.1321,-5.1321,-5.1321,0,0,-5.102,-5.1033,-5.1064,-5.1115,-5.113,-5.118,-5.1114,-5.1168,-5.1205,-5.1152,-5.1223,-5.1228,-5.1249,-5.1335,-5.1373,-5.1342,-5.1513,-5.1456,-5.1465,-5.1469,-5.1518,-5.1538,-5.1555,-5.1327,-5.1326,-5.1325,0,0,-5.1147,-5.1161,-5.123,-5.1247,-5.1272,-5.1267,-5.1283,-5.1299,-5.1301,-5.1372,-5.1334,-5.1376,-5.1447,-5.1465,-5.1483,-5.1617,-5.1586,-5.163,-5.1708,-5.1759,-5.1775,-5.1789,-5.1838,-5.1856,-5.164,-5.1641,-5.1641,0,-5.1212,-5.1287,-5.1268,-5.1327,-5.135,-5.1306,-5.1375,-5.1392,-5.1427,-5.1444,-5.141,-5.1499,-5.151,-5.16,-5.1633,-5.1649,-5.1667,-5.1628,-5.1774,-5.1788,-5.1801,-5.1848,-5.1866,-5.1646,-5.1645,-5.1645,-5.1644,0,-5.1366,-5.1419,-5.1471,-5.1509,-5.1538,-5.1602,-5.1591,-5.1623,-5.1605,-5.1603,-5.1676,-5.1688,-5.1728,-5.1748,-5.173,-5.1836,-5.1816,-5.1779,-5.1717,-5.1827,-5.187,-5.1888,-5.1654,-5.1652,-5.165,-5.1649,0,0,-5.1539,-5.1567,-5.1587,-5.1604,-5.1629,-5.1669,-5.173,-5.1771,-5.1799,-5.1824,-5.1875,-5.1937,-5.1903,-5.1924,-5.1907,-5.1952,-5.2059,-5.1909,-5.1909,-5.1937,-5.2178,-5.2207,-5.2228,-5.2038,-5.2042,-5.2044,-5.2176,0,-5.1667,-5.1776,-5.1761,-5.1864,-5.1913,-5.1873,-5.1926,-5.1946,-5.1947,-5.1987,-5.1986,-5.2031,-5.1982,-5.1994,-5.2037,-5.2038,-5.2107,-5.2027,-5.2085,-5.2087,-5.2082,-5.225,-5.2281,-5.2405,-5.2193,-5.2196,-5.2198,0,-5.183,-5.1865,-5.1975,-5.1993,-5.2013,-5.2062,-5.2099,-5.2138,-5.216,-5.2157,-5.2181,-5.2157,-5.2217,-5.2155,-5.2237,-5.2184,-5.2206,-5.221,-5.2214,-5.2219,-5.215,-5.2261,-5.2444,-5.2463,-5.2224,-5.2222,-5.222,0,-5.1948,-5.2021,-5.2096,-5.2112,-5.2135,-5.2171,-5.2182,-5.22,-5.2227,-5.2258,-5.2275,-5.2313,-5.2334,-5.2363,-5.2349,-5.2305,-5.2435,-5.2371,-5.2434,-5.2435,-5.2464,-5.2463,-5.2654,-5.2477,-5.2477,-5.2476,-5.2476,0,-5.2092,-5.2161,-5.215,-5.2196,-5.2272,-5.2253,-5.2328,-5.2334,-5.2351,-5.2398,-5.2364,-5.2407,-5.2386,-5.2428,-5.2417,-5.2488,-5.2497,-5.2496,-5.2493,-5.25,-5.2501,-5.2515,-5.2507,-5.2481,-5.248,-5.2479,-5.2478,0,-5.2236,-5.2231,-5.2311,-5.2327,-5.2333,-5.2388,-5.2401,-5.2444,-5.2442,-5.2501,-5.2514,-5.251,-5.2558,-5.2547,-5.2599,-5.2591,-5.2681,-5.2666,-5.2675,-5.2672,-5.2736,-5.2731,-5.2944,-5.2972,-5.2776,-5.2778,-5.2779,0,-5.2329,-5.2382,-5.2404,-5.2434,-5.2449,-5.2496,-5.2523,-5.2507,-5.2536,-5.2567,-5.2606,-5.2651,-5.2687,-5.2765,-5.2766,-5.2805,-5.2791,-5.2864,-5.2797,-5.2803,-5.2794,-5.2792,-5.2797,-5.2877,-5.2879,-5.2881,-5.2883,0,-5.2496,-5.2491,-5.2533,-5.2575,-5.2609,-5.264,-5.2668,-5.2693,-5.2679,-5.2714,-5.2764,-5.2791,-5.2845,-5.289,-5.2927,-5.2936,-5.2908,-5.2904,-5.2921,-5.2929,-5.2933,-5.2933,-5.2712,-5.2899,-5.2897,-5.2896,-5.2895,-5.2895,-5.2617,-5.2663,-5.2687,-5.2735,-5.2755,-5.2782,-5.2824,-5.2828,-5.287,-5.2914,-5.2901,-5.2958,-5.2979,-5.3025,-5.304,-5.3083,-5.3055,-5.308,-5.3086,-5.3093,-5.3101,-5.2925,-5.3089,-5.3089,-5.3088,-5.3088,-5.3087,0,-5.2783,-5.2797,-5.2842,-5.2883,-5.2921,-5.2892,-5.2921,-5.2955,-5.3006,-5.3029,-5.3065,-5.3122,-5.3166,-5.3172,-5.3213,-5.3247,-5.3235,-5.3258,-5.3256,-5.3259,-5.3123,-5.3105,-5.3268,-5.3268,-5.3267,-5.3267,-5.3267,-5.3267,-5.2874,-5.295,-5.2949,-5.3034,-5.3046,-5.3104,-5.3123,-5.3148,-5.3166,-5.3233,-5.327,-5.3274,-5.329,-5.3332,-5.3371,-5.3372,-5.3389,-5.3418,-5.3413,-5.3286,-5.3268,-5.3251,-5.3234,-5.3422,-5.3422,-5.3546,-5.3547,-5.3548]}]]